Regional Weather Roundup
Issued by NWS

Home | Current Version | Previous Version | Text Only | Print | Product List | Glossary On
Versions: 1 2 3 4 5 6 7 8 9 10 11 12 13 14 15 16 17 18 19 20 21 22 23 24 25 26 27 28
000
ASUS42 KTBW 180010
RWRFL
FLORIDA REGIONAL WEATHER ROUNDUP
NATIONAL WEATHER SERVICE TAMPA BAY RUSKIN FL
800 PM EDT THU APR 17 2014

NOTE: "FAIR" INDICATES FEW OR NO CLOUDS BELOW 12,000 FEET WITH NO
SIGNIFICANT WEATHER AND/OR OBSTRUCTIONS TO VISIBILITY.


FLZ001>010-012>015-112-114-115-180100-
PANHANDLE FLORIDA

CITY           SKY/WX    TMP DP  RH WIND       PRES   REMARKS
PENSACOLA      CLOUDY    69  55  60 NE8       30.13F
PENSACOLA NAS  CLOUDY    69  57  65 NE9       30.13S
MILTON NAS     CLOUDY    67  54  63 E9        30.15S
CRESTVIEW      CLOUDY    68  55  63 E6        30.18S
DUKE FIELD     DRIZZLE   66  55  68 NE8       30.16S
VALPARAISO     CLOUDY    69  57  67 E8        30.15S
MARY ESTHER    CLOUDY    68  52  55 NE13      30.13F
TRI COUNTY     CLOUDY    65  56  72 VRB7      30.21S
PANAMA CITY    CLOUDY    68  56  65 NE12G21   30.16S
TYNDALL AFB    CLOUDY    67  62  82 E9G17     30.15F
APALACHICOLA   LGT RAIN  65  60  84 NE13      30.16S

STATION/POSITION SKY/WX   TEMP    WIND        PRES    WAVE   SWELL
                          AIR SEA DIR/SP/G            HT/PER HT/PER
                          (F)     (DEG/KT/KT) (MB)    (FT/S) (FT/S)
30.1N   87.6W              67 66   50/  8/ 10 1020.1F   5/ 8   5/ 8
PANAMA CITY BEAC           68 67   80/  9/ 14 1021.0R
CAPE SAN BLAS    NOT AVBL
TOWER C                    65      50/ 23/ 25 1020.4R
28.5N   84.5W              72 69   80/ 19/ 27 1018.9R   5/ 5

$$
FLZ011-016>038-118-127-128-134-139-239-180100-
NORTH FLORIDA

CITY           SKY/WX    TMP DP  RH WIND       PRES   REMARKS
MARIANNA       CLOUDY    66  56  70 E12       30.21S
TALLAHASSEE    RAIN      65  59  81 E8        30.22R
PERRY          CLOUDY    64  59  82 NE8G16    30.20S
CROSS CITY       N/A     70  59  68 NE12G21   30.18R
GAINESVILLE    CLOUDY    67  60  78 NE14      30.21R
MAYPORT NAS    CLOUDY    65  61  87 NE22G29   30.25F
JACKSONVILLE   LGT RAIN  62  61  96 NE10      30.26S FOG
JAX NAS        CLOUDY    66  60  81 NE22G30   30.24F
JAX CRAIG      LGT RAIN  65  61  87 NE12G23   30.26R FOG
JAX CECIL      CLOUDY    63  59  88 NE14G21   30.25R
FERNANDINA BEA CLOUDY    64  59  82 NE16G26   30.26R
ST AUGUSTINE   MOCLDY    66  63  90 NE13      30.24R

STATION/POSITION SKY/WX   TEMP    WIND        PRES    WAVE   SWELL
                          AIR SEA DIR/SP/G            HT/PER HT/PER
                          (F)     (DEG/KT/KT) (MB)    (FT/S) (FT/S)
SHELL POINT                65      50/  7/ 13 1021.0R
KEATON BEACH               67      60/ 14/ 17 1022.2R
CEDAR KEY                  71      80/ 17/ 19 1021.7R
FERNANDINA                 64 66   30/  7/ 14 1024.4R
30.7N   81.3W                 64                N/A     8/ 6   2/11
MAYPORT                    64 65   50/ 19/ 22   N/A
31.4N   80.9W              63 64   50/ 23/ 27 1025.2F   7/ 6   3/11
ST AUGUSTINE               65      20/ 13/ 14 1024.2R

$$
FLZ040-043>046-052-053-057-058-063-144-180100-
INTERIOR CENTRAL FLORIDA

CITY           SKY/WX    TMP DP  RH WIND       PRES   REMARKS
OCALA          MOCLDY    72  55  56 E5        30.19R
THE VILLAGES     N/A     72  59  64 NE10      30.19R
LEESBURG       PTCLDY    72  60  66 E15G23    30.19R
SANFORD        PTCLDY    71  62  73 NE14      30.17F
ORLANDO EXEC   MOCLDY    72  62  71 E13       30.17R
ORLANDO INTL   MOCLDY    73  63  70 NE13      30.17R
WINTER HAVEN   CLOUDY    72  63  73 E14       30.16R
LAKELAND       CLOUDY    73  63  68 E12G21    30.15R
BARTOW         CLOUDY    72  64  78 E15G22    30.15R
OKEECHOBEE     CLOUDY    72  68  88 E9G16     30.11S

$$
FLZ041-047-054-059-064-141-147-180100-
EAST CENTRAL FLORIDA

CITY           SKY/WX    TMP DP  RH WIND       PRES   REMARKS
DAYTONA BEACH  MOCLDY    70  62  76 NE10      30.20F
NEW SMYRNA BEA PTCLDY    72  63  73 NE9G16    30.20F
JFK SPACE CTR  CLEAR     71  66  82 E12       30.17R
TITUSVILLE     PTCLDY    72  64  78 E23       30.17S
CAPE CANAVERAL DRIZZLE   70  67  89 E12G18    30.16S
PATRICK AFB    CLOUDY    73  69  86 NE15      30.15S
MELBOURNE      CLOUDY    74  67  78 E18       30.15S
VERO BEACH     CLOUDY    74  69  85 E17       30.13S
FT PIERCE      CLOUDY    74  67  78 E14       30.12R

STATION/POSITION SKY/WX   TEMP    WIND        PRES    WAVE   SWELL
                          AIR SEA DIR/SP/G            HT/PER HT/PER
                          (F)     (DEG/KT/KT) (MB)    (FT/S) (FT/S)
28.5N   80.2W              74 75   70/ 19/ 25 1021.1R
28.9N   78.5W              73 76   70/ 21/ 25 1021.6R   9/10   7/10
TRIDENT PIER               72 74   40/  8/ 12 1020.9R
28.4N   80.5W                 73                N/A     4/ 9   2/11
27.6N   80.2W                 73                N/A     7/12   3/12

$$
FLZ050-056-061-142-242-148-248-149-249-151-251-155-255-
160-260-180100-
WEST CENTRAL FLORIDA

CITY           SKY/WX    TMP DP  RH WIND       PRES   REMARKS
CRYSTAL RIVER  FAIR      72  57  60 E16       30.14S
INVERNESS      MOCLDY    72  55  56 NE9       30.17R
BROOKSVILLE    CLOUDY    73  59  61 E14       30.14S
ZEPHYRHILLS    CLOUDY    72  61  68 NE10      30.15R
CLEARWATER     CLOUDY    74  64  71 E16G24    30.12R
TAMPA INTL     CLOUDY    74  62  66 E12G22    30.13S
TAMPA EXEC     CLOUDY    73  63  68 E13       30.14S
PLANT CITY     CLOUDY    75  64  69 E14       30.16R
MACDILL AFB    MOCLDY    73  68  82 E21G28    30.12R
PETER O KNIGHT MOCLDY    75  64  69 E20G26    30.13S
ST PETERSBURG  CLOUDY    74  68  81 E24       30.11R
SARASOTA       LGT RAIN  70  65  84 E12       30.10R
VENICE         FAIR      70  68  94 E12       30.09R

STATION/POSITION SKY/WX   TEMP    WIND        PRES    WAVE   SWELL
                          AIR SEA DIR/SP/G            HT/PER HT/PER
                          (F)     (DEG/KT/KT) (MB)    (FT/S) (FT/S)
CEDAR KEY                  71      80/ 17/ 19 1021.7R
28.5N   84.5W              72 69   80/ 19/ 27 1018.9R   5/ 5
27.3N   84.3W                 72                N/A     4/ 5
CLEARWATER BEACH           74 72   70/ 13/ 21 1019.2R
MIDDLE TAMPA BAY           74      80/ 23/ 25 1019.3R
VENICE                     70 74   80/ 10/ 13 1018.5R

$$
FLZ066-069-070-075>078-162-262-165-265-180100-
SOUTHWEST FLORIDA AND KEYS

CITY           SKY/WX    TMP DP  RH WIND       PRES   REMARKS
PUNTA GORDA    CLOUDY    71  68  90 E12       30.10F
FT MYERS       CLOUDY    72  69  90 NE7       30.07S
SOUTHWEST INTL MOCLDY    72  70  93 E9        30.08S
NAPLES         MOCLDY    73  73 100 E12       30.06S
MARATHON       PTCLDY    80  72  76 E13G18    30.02F
KEY WEST NAS   MOCLDY    79  73  82 E17       30.02R
KEY WEST INTL  PTCLDY    80  73  79 E17       30.02S

STATION/POSITION SKY/WX   TEMP    WIND        PRES    WAVE   SWELL
                          AIR SEA DIR/SP/G            HT/PER HT/PER
                          (F)     (DEG/KT/KT) (MB)    (FT/S) (FT/S)
VENICE                     70 74   80/ 10/ 13 1018.5R
NAPLES                     73 76   70/  6/ 13 1018.0R
DRY TORTUGAS     NOT AVBL
NW FL BAY                  82     100/ 16/ 20 1017.3R
SOMBRERO KEY               79      90/ 18/ 19 1017.1F
LONG KEY                   80 82   90/ 20/ 21 1017.6F
MOLASSES REEF              78 78   90/ 21/ 23 1017.0F

$$
FLZ067-068-071>074-168-172>174-180100-
SOUTHEAST FLORIDA

CITY           SKY/WX    TMP DP  RH WIND       PRES   REMARKS
W PALM BEACH   CLOUDY    76  70  82 E17G24    30.08S
FT LAUDER-EXEC CLOUDY    75  72  90 E13       30.07S
FT LAUDERDALE  MOCLDY    77  75  93 E14       30.06F
POMPANO BEACH  LGT RAIN  76  73  91 E17       30.07F FOG
PEMBROKE PINES MOCLDY    76  72  87 E14       30.08F
OPA LOCKA      MOCLDY    76  71  85 E13       30.07S
MIAMI          MOCLDY    78  71  79 E14       30.06F
WEST KENDALL   MOCLDY    77  72  84 E14       30.06F
HOMESTEAD      PTCLDY    77  70  77 E14       30.05F

STATION/POSITION SKY/WX   TEMP    WIND        PRES    WAVE   SWELL
                          AIR SEA DIR/SP/G            HT/PER HT/PER
                          (F)     (DEG/KT/KT) (MB)    (FT/S) (FT/S)
PORT EVERGLADES            77      60/ 16/ 21 1018.4
VIRGINIA KEY               78 80   80/ 13/ 19 1018.0S
LAKE WORTH                 76 77   60/ 20/ 23 1018.5R
FOWEY ROCKS                78 79   70/ 20/ 21 1017.9F
SETTLEMENT POINT           76      60/ 21/ 23 1019.8R

$$




USA.gov is the U.S. government's official web portal to all federal, state and local government web resources and services.